Regional Weather Roundup
Issued by NWS Sterling, VA

Home | Current Version | Previous Version | Graphics & Text | Print | Product List | Glossary On
Versions: 1 2 3 4 5 6 7 8 9 10 11 12 13 14 15 16 17 18 19 20 21 22 23 24 25 26 27
000
ASUS41 KLWX 220211
RWRLWX

REGIONAL WEATHER ROUNDUP
NATIONAL WEATHER SERVICE BALTIMORE MD/WASHINGTON DC
1000 PM EDT MON MAY 21 2018

Note: "FAIR" indicates few or no clouds below 12,000 feet
with no significant weather and/or obstructions to visibility.
 TC=TEMPERATURE CELSIUS

 * =Non NWS site. Station does not report precipitation (e.g. rain,
    snow, etc.), thunder, or fog.

DCZ001-MDZ009-015-VAZ040>042-051-053>054-220300-
WASHINGTON METRO

CITY           SKY/WX    TMP DP  RH WIND       PRES   REMARKS
WASHINGTON NAT MOCLDY    71  62  73 S9        30.15R
DULLES         MOCLDY    71  63  75 SE7       30.14S
ANDREWS AFB    FAIR      67  61  81 CALM      30.15R
FT BELVOIR     FAIR      70  62  76 SE7       30.15R
QUANTICO       FAIR      71  66  84 S7        30.16R
COLLEGE PARK*  FAIR      71  61  70 SE3       30.15R
LEESBURG*      FAIR      73  64  73 SE9       30.15R
MANASSAS*      FAIR      69  63  81 SE7       30.15R
GAITHERSBURG*  FAIR      67  61  81 CALM      30.16S

$$

MDZ006>007-011-014-220300-
BALTIMORE METRO

CITY           SKY/WX    TMP DP  RH WIND       PRES   REMARKS
BWI AIRPORT    MOCLDY    69  61  75 S6        30.14S
MD SCIENCE CTR   N/A     74  63  68 MISG      30.14R
MARTIN STATE   CLEAR     72  66  83 S8        30.16R
ANNAPOLIS      FAIR      71  60  68 S9        30.16R
FORT MEADE*    FAIR      64  61  88 SE5       30.17S

$$

MDZ012-015-019>023-220300-
MARYLAND EASTERN SHORE

CITY           SKY/WX    TMP DP  RH WIND       PRES   REMARKS
OCEAN CITY     FAIR      60  58  92 E3        30.18S
SALISBURY      FAIR      62  57  83 CALM      30.17S
BAY BRIDGE AP* FAIR      68  61  77 S8        30.16R
CAMBRIDGE*       N/A     64  59  82 CALM      30.17R
EASTON*        CLEAR     68  55  64 S5        30.21R

$$

MDZ017>025-220300-
SOUTHERN MARYLAND

CITY           SKY/WX    TMP DP  RH WIND       PRES   REMARKS
PATUXENT RIVER FAIR      68  57  68 S6        30.16S
ST INIGOES     FAIR      66  59  78 CALM      30.16S
LEONARDTOWN*   FAIR      63  55  77 CALM      30.19R

$$

MDZ003>005-220300-
NORTH CENTRAL MARYLAND

CITY           SKY/WX    TMP DP  RH WIND       PRES   REMARKS
FREDERICK*     FAIR      72  59  64 SE5       30.17R
HAGERSTOWN APT MOCLDY    73  62  68 SE7       30.14R
WESTMINSTER*   FAIR      72  61  68 CALM      30.16R

$$

MDZ501>502-220300-
WESTERN MARYLAND

CITY           SKY/WX    TMP DP  RH WIND       PRES   REMARKS
OAKLAND*       FAIR      61  61 100 SW9G18    30.21R
CUMBERLAND*    CLOUDY    73  64  73 CALM      30.17R

$$

VAZ025>031-220300-
SHENANDOAH VALLEY

CITY           SKY/WX    TMP DP  RH WIND       PRES   REMARKS
WINCHESTER*    CLOUDY    70  63  78 SE6       30.15S
FRONT ROYAL*   CLOUDY    72  64  78 S5        30.13R
LURAY*         LGT RAIN  70  68  94 S3        30.15R
NEW MARKET*    CLOUDY   N/A N/A N/A CALM      30.14R
STAUNTON*      MOCLDY    69  68  96 CALM      30.18S
WAYNESBORO*    MOCLDY    72  68  86 E3        30.18R

$$

WVZ021-048>050-054>055-220300-
EASTERN WEST VIRGINIA PANHANDLE

CITY           SKY/WX    TMP DP  RH WIND       PRES   REMARKS
MARTINSBURG    MOCLDY    72  64  76 SE7       30.12R
PETERSBURG*    MOCLDY    67  66  98 CALM      30.16R

$$

VAZ036>039-050-220300-
CENTRAL FOOTHILLS

CITY           SKY/WX    TMP DP  RH WIND       PRES   REMARKS
CHARLOTTESVILL CLOUDY    76  68  76 S13       30.15R
CULPEPER*      FAIR      71  65  80 CALM      30.15R
ORANGE*        FAIR      72  64  78 S3        30.15R
GORDONSVILLE*  FAIR      72  69  89 CALM      30.15R
WARRENTON*     FAIR      70  62  76 SE3       30.14S

$$

VAZ055>057-220300-
NORTH AND CENTRAL PIEDMONT

CITY           SKY/WX    TMP DP  RH WIND       PRES   REMARKS
FREDERICKSBRG* FAIR      71  63  76 SE7       30.14S
STAFFORD*      FAIR      70  65  82 SE6       30.18R

$$

NCZ024-NYZ072-PAZ021-071-VAZ022-071-220300-
OTHER REGIONAL OBSERVATIONS

CITY           SKY/WX    TMP DP  RH WIND       PRES   REMARKS
NEW YORK CITY  FAIR      65  48  54 CALM      30.18R
PHILADELPHIA   FAIR      64  52  64 SE6       30.18R
PITTSBURGH     MOCLDY    73  60  63 SE3       30.07S
ROANOKE        CLOUDY    69  66  90 CALM      30.19R
RICHMOND       CLOUDY    67  61  81 SE3       30.16R
RALEIGH        CLOUDY    69  68  96 CALM      30.14S

$$

ANZ530>537-220300-
MARINE OBSERVATIONS

STATION/POSITION TIME  TEMP    WIND        PRES
                       AIR SEA DIR/SP/G
                 (UTC) (F)     (DEG/KT/KT) (MB)
THOMAS PT LIGHT  0100   69 69  180/ 16/ 17 1021.6R
BALT KEY BRIDGE  0148   71     160/ 12/ 13 1020.8R
COVE POINT       0148   68     190/ 12/ 14 1022.1R
LEWISETTA        0148   67 75  160/  5/  5 1021.6R
SOLOMONS ISLAND  0148   67 70  160/  7/  8 1021.4R
PINEY POINT      0148          170/  8/ 10   N/A

$$





USA.gov is the U.S. government's official web portal to all federal, state and local government web resources and services.